Погода в Черни-Врых

Болгария     43°38′52″N   23°24′37″E
темп.,
°C
ветер,
м/с
пор.,
м/с
влажн.,
%
обл.,
%
осадки,
мм/ч
давл.,
гПа
погр.,
м
9 мая, вс
вс900:00+9зсз511584 0.0 1023228
03:00+7зсз34645 0.0 102447
06:00+5сз226933 0.0 102510
09:00+10зсз235960 0.0 1027339
12:00+16зсз01475 0.0 1026953
15:00+19вюв333530 0.0 10251491
18:00+19вюв33365 0.0 10231297
21:00+13в33595 0.0 102432
10 мая, пн
пн1000:00+10вюв35654 0.0 102574
03:00+9в22730 0.0 102420
06:00+7св11810 0.0 102410
09:00+12всв22680 0.0 1025352
12:00+18в34520 0.0 10241018
15:00+21в44470 0.0 10221417
18:00+21в55454 0.0 10201312
21:00+15в35615 0.0 102059
11 мая, вт
вт1100:00+11в36775 0.0 1021105
03:00+9всв22775 0.0 102117
06:00+7св22820 0.0 102014
09:00+12всв33665 0.0 1020353
12:00+18всв33565 0.0 1019838
15:00+21в44486 0.0 10161224
18:00+21в45440 0.0 10141172
21:00+15в35580 0.0 101356
12 мая, ср
ср1200:00+13в34690 0.0 101354
03:00+11всв33795 0.0 101143
06:00+9св22830 0.0 101017
09:00+14всв22710 0.0 1010343
12:00+20в345675 0.0 1008970
15:00+23в4453100 0.0 10061472
18:00+16св2488100 5.9 1004127
21:00+12ссз81596100 25.0 1007476
13 мая, чт
чт1300:00+12зюз349641 6.4 100782
03:00+10зюз22930 6.4 100714
06:00+10зюз129360 0.0 100711
09:00+15юз1275100 0.0 1007302
12:00+20юв23575 0.0 1006957
15:00+23з1344100 0.0 10061696
18:00+23всв1146100 0.0 10051233
21:00+14ссв469576 3.1 1007153